GW4746 Weather Reports


Display with metric or nautical units.
time (UTC)temp
F
wind
direction
speed
MPH
gust
MPH
rain 1hr
in
rain 24hr
in
rain mn
in
humidity
%
barometer
mb
20260506203019 70 110 1.0 5.0 0.00 0.00 0.00 45 1014.2
20260506201508 70 60 1.0 8.0 0.00 0.00 0.00 47 1014.4
20260506200008 69 327 2.0 5.0 0.00 0.00 0.00 48 1014.6
20260506194514 68 72 1.0 4.0 0.00 0.00 0.00 49 1014.6
20260506193020 68 4 2.0 4.0 0.00 0.00 0.00 48 1014.8
20260506191518 67 21 1.0 5.0 0.00 0.00 0.00 51 1015.0
20260506190006 66 75 2.0 7.0 0.00 0.00 0.00 52 1015.2
20260506184508 66 350 2.0 6.0 0.00 0.00 0.00 53 1015.5
20260506183016 64 91 2.0 5.0 0.00 0.00 0.00 54 1015.9
20260506181522 63 345 2.0 7.0 0.00 0.00 0.00 56 1016.0
20260506180028 62 349 2.0 7.0 0.00 0.00 0.00 58 1016.0
20260506174510 60 359 4.0 9.0 0.00 0.00 0.00 59 1016.2
20260506173018 61 28 2.0 7.0 0.00 0.00 0.00 59 1016.4
20260506171519 60 46 3.0 7.0 0.00 0.00 0.00 60 1016.1
20260506170022 60 337 4.0 7.0 0.00 0.00 0.00 62 1016.2
20260506164524 57 323 4.0 9.0 0.00 0.00 0.00 68 1016.4
20260506163014 56 283 2.0 6.0 0.00 0.00 0.00 70 1016.2
20260506161515 54 338 2.0 8.0 0.00 0.00 0.00 74 1016.0
20260506160021 53 13 2.0 6.0 0.00 0.00 0.00 76 1016.1
20260506154526 53 70 2.0 5.0 0.00 0.00 0.00 76 1016.0
20260506153026 52 321 3.0 10.0 0.00 0.00 0.00 78 1015.9
20260506151528 52 307 4.0 12.0 0.00 0.00 0.00 79 1015.8
20260506150015 51 288 4.0 9.0 0.00 0.00 0.00 79 1015.9
20260506144518 52 34 2.0 5.0 0.00 0.00 0.00 79 1015.9
20260506143026 52 96 1.0 5.0 0.00 0.00 0.00 79 1016.2
20260506141530 51 131 1.0 6.0 0.00 0.00 0.00 79 1015.9
20260506140029 51 49 0.0 5.0 0.00 0.00 0.00 80 1016.1
20260506134516 51 146 0.0 5.0 0.00 0.00 0.00 80 1016.1
20260506133019 51 88 1.0 5.0 0.00 0.00 0.00 80 1015.7
20260506131530 51 9 2.0 5.0 0.00 0.00 0.00 79 1015.9
20260506130008 51 67 2.0 5.0 0.00 0.00 0.00 79 1015.3
20260506124514 51 120 2.0 4.0 0.00 0.00 0.00 79 1015.4
20260506123018 51 87 1.0 3.0 0.00 0.00 0.00 79 1015.3
20260506121520 51 84 0.0 5.0 0.00 0.00 0.00 79 1014.3
20260506120027 52 287 2.0 8.0 0.00 0.00 0.00 79 1013.8
20260506114508 52 345 3.0 6.0 0.00 0.00 0.00 79 1013.4
20260506113014 52 241 1.0 7.0 0.00 0.00 0.00 79 1013.1
20260506111522 52 354 3.0 7.0 0.00 0.00 0.00 79 1013.4
20260506110024 52 318 1.0 7.0 0.00 0.00 0.00 79 1013.3
20260506104528 52 332 2.0 8.0 0.00 0.00 0.00 79 1013.1
20260506103011 52 36 1.0 5.0 0.00 0.00 0.00 80 1013.2
20260506101527 52 333 2.0 6.0 0.00 0.00 0.00 80 1013.2
20260506100022 52 18 1.0 4.0 0.00 0.00 0.00 80 1012.8
20260506094525 52 317 0.0 4.0 0.00 0.00 0.00 80 1012.4
20260506093038 52 110 0.0 3.0 0.00 0.00 0.00 81 1012.2
20260506091526 52 63 0.0 3.0 0.00 0.00 0.00 82 1012.3
20260506090015 52 98 0.0 4.0 0.00 0.00 0.00 82 1012.1
20260506084523 52 105 1.0 3.0 0.00 0.00 0.00 82 1012.1
20260506083025 52 120 0.0 3.0 0.00 0.00 0.00 81 1011.9
20260506081533 52 343 1.0 4.0 0.00 0.00 0.00 81 1012.0
20260506073037 53 20 1.0 4.0 0.00 0.00 0.00 78 1012.1
20260506071524 54 7 1.0 4.0 0.00 0.00 0.00 77 1012.0
20260506061505 56 94 2.0 8.0 0.00 0.00 0.00 74 1011.8
20260506044521 61 114 2.0 7.0 0.00 0.00 0.00 65 1010.4
20260506043014 62 103 2.0 4.0 0.00 0.00 0.00 64 1010.4
20260506041515 63 96 2.0 5.0 0.00 0.00 0.00 62 1010.4
20260506040025 63 79 0.0 3.0 0.00 0.00 0.00 61 1010.3
20260506034508 64 77 2.0 6.0 0.00 0.00 0.00 59 1010.4
20260506033008 66 79 2.0 5.0 0.00 0.00 0.00 57 1010.1
20260506031527 68 88 2.0 9.0 0.00 0.00 0.00 53 1010.0
20260506030018 70 87 1.0 5.0 0.00 0.00 0.00 51 1009.7
20260506024522 71 60 1.0 5.0 0.00 0.00 0.00 51 1009.6
20260506023028 72 122 1.0 5.0 0.00 0.00 0.00 50 1009.2
20260506021526 72 79 1.0 4.0 0.00 0.00 0.00 49 1008.8
20260506020016 73 110 1.0 5.0 0.00 0.00 0.00 48 1008.7
20260506014526 74 122 2.0 6.0 0.00 0.00 0.00 47 1008.5
20260506013023 76 99 1.0 5.0 0.00 0.00 0.00 46 1007.9
20260506011527 77 67 1.0 4.0 0.00 0.00 0.00 44 1007.5
20260506010028 78 358 1.0 5.0 0.00 0.00 0.00 43 1007.3
20260506004530 79 326 1.0 4.0 0.00 0.00 0.00 43 1007.3
20260506003038 80 69 1.0 4.0 0.00 0.00 0.00 41 1007.0
20260506001524 81 82 1.0 9.0 0.00 0.00 0.00 40 1006.5
20260506000027 82 301 1.0 5.0 0.00 0.00 0.00 39 1006.6
20260505234522 83 25 2.0 10.0 0.00 0.00 0.00 36 1006.3
20260505233018 84 6 1.0 6.0 0.00 0.00 0.00 33 1005.9
20260505231522 84 349 1.0 5.0 0.00 0.00 0.00 31 1005.7
20260505230030 85 326 4.0 9.0 0.00 0.00 0.00 31 1006.1
20260505224527 86 328 2.0 8.0 0.00 0.00 0.00 31 1006.2
20260505223015 86 84 2.0 5.0 0.00 0.00 0.00 30 1005.9
20260505221520 88 352 1.0 5.0 0.00 0.00 0.00 30 1005.6
20260505220036 88 313 2.0 8.0 0.00 0.00 0.00 29 1005.1
20260505214532 89 59 1.0 7.0 0.00 0.00 0.00 28 1005.3
20260505213028 91 356 2.0 6.0 0.00 0.00 0.00 26 1005.3
20260505211518 94 285 2.0 7.0 0.00 0.00 0.00 19 1005.3
20260505210019 93 264 1.0 7.0 0.00 0.00 0.00 20 1005.5
20260505204526 94 260 1.0 6.0 0.00 0.00 0.00 18 1005.5